• In Schweiz
  • Länderverzeichnis
  • Für 7 Tage
  • Wassertemperatur
  • Satellitenkarten
  • Wetterkarte
  • Widgets
  • user-avatar
    Anmelden

    Stündliche Wetter Auckland

    Heute, 23 Oktober, Dienstag

    Zeit Temperatur Niederschläge Wind Luftdruck Luftfeuchtigkeit
    00:00 +12°C° 0 mm 1 m/S 769 mmHg 94%
    01:00 +12°C° 0 mm 1 m/S 769 mmHg 94%
    02:00 +11°C° 0 mm 1 m/S 769 mmHg 95%
    03:00 +11°C° 0 mm 1 m/S 768 mmHg 95%
    04:00 +11°C° 0 mm 1 m/S 768 mmHg 95%
    05:00 +11°C° 0 mm 1 m/S 768 mmHg 95%
    06:00 +12°C° 0 mm 1 m/S 768 mmHg 92%
    07:00 +15°C° 0 mm 1 m/S 768 mmHg 80%
    08:00 +18°C° 0 mm 1 m/S 768 mmHg 69%
    09:00 +21°C° 0 mm 1 m/S 768 mmHg 57%
    10:00 +23°C° 0 mm 1 m/S 768 mmHg 52%
    11:00 +24°C° 0 mm 2 m/S 768 mmHg 47%
    12:00 +25°C° 0 mm 2 m/S 767 mmHg 43%
    13:00 +25°C° 0 mm 3 m/S 767 mmHg 45%
    14:00 +24°C° 0 mm 3 m/S 767 mmHg 46%
    15:00 +24°C° 0 mm 3 m/S 767 mmHg 48%
    16:00 +21°C° 0 mm 3 m/S 767 mmHg 55%
    17:00 +20°C° 0 mm 3 m/S 766 mmHg 61%
    18:00 +18°C° 0 mm 3 m/S 766 mmHg 68%
    19:00 +17°C° 0 mm 3 m/S 767 mmHg 76%
    20:00 +15°C° 0 mm 2 m/S 767 mmHg 84%
    21:00 +14°C° 0 mm 2 m/S 767 mmHg 93%
    22:00 +13°C° 0 mm 2 m/S 767 mmHg 94%
    23:00 +13°C° 0 mm 2 m/S 767 mmHg 96%

    Morgen, 24 Oktober, Mittwoch

    Zeit Temperatur Niederschläge Wind Luftdruck Luftfeuchtigkeit
    00:00 +13°C° 0 mm 1 m/S 767 mmHg 97%
    01:00 +13°C° 0 mm 1 m/S 767 mmHg 98%
    02:00 +13°C° 0 mm 1 m/S 766 mmHg 98%
    03:00 +12°C° 0 mm 1 m/S 766 mmHg 98%
    04:00 +13°C° 0 mm 1 m/S 766 mmHg 98%
    05:00 +13°C° 0 mm 1 m/S 766 mmHg 98%
    06:00 +13°C° 0 mm 1 m/S 766 mmHg 98%
    07:00 +15°C° 0 mm 1 m/S 766 mmHg 89%
    08:00 +18°C° 0 mm 1 m/S 766 mmHg 80%
    09:00 +19°C° 0 mm 2 m/S 766 mmHg 71%
    10:00 +20°C° 0 mm 2 m/S 766 mmHg 64%
    11:00 +21°C° 0 mm 2 m/S 766 mmHg 58%
    12:00 +22°C° 0 mm 3 m/S 766 mmHg 52%
    13:00 +22°C° 0 mm 3 m/S 765 mmHg 52%
    14:00 +22°C° 0 mm 3 m/S 765 mmHg 52%
    15:00 +22°C° 0 mm 4 m/S 765 mmHg 52%
    16:00 +21°C° 0 mm 4 m/S 765 mmHg 57%
    17:00 +19°C° 0 mm 3 m/S 764 mmHg 62%
    18:00 +18°C° 0 mm 3 m/S 764 mmHg 67%
    19:00 +17°C° 0 mm 3 m/S 765 mmHg 76%
    20:00 +14°C° 0 mm 3 m/S 765 mmHg 84%
    21:00 +14°C° 0 mm 2 m/S 765 mmHg 93%
    22:00 +13°C° 0 mm 2 m/S 765 mmHg 94%
    23:00 +12°C° 0 mm 3 m/S 765 mmHg 96%

    übermorgen, 25 Oktober, Donnerstag

    Zeit Temperatur Niederschläge Wind Luftdruck Luftfeuchtigkeit
    00:00 +12°C° 0 mm 3 m/S 765 mmHg 97%
    01:00 +12°C° 0 mm 3 m/S 764 mmHg 97%
    02:00 +12°C° 0 mm 3 m/S 764 mmHg 96%
    03:00 +12°C° 0 mm 3 m/S 763 mmHg 96%
    04:00 +12°C° 0 mm 3 m/S 763 mmHg 96%
    05:00 +12°C° 0 mm 3 m/S 763 mmHg 96%
    06:00 +12°C° 0 mm 3 m/S 763 mmHg 96%
    07:00 +14°C° 0 mm 4 m/S 763 mmHg 85%
    08:00 +17°C° 0 mm 4 m/S 763 mmHg 75%
    09:00 +18°C° 0 mm 4 m/S 763 mmHg 64%
    10:00 +19°C° 0 mm 5 m/S 763 mmHg 59%
    11:00 +20°C° 0 mm 5 m/S 763 mmHg 53%
    12:00 +21°C° 0 mm 5 m/S 763 mmHg 48%
    13:00 +21°C° 0.1 mm 6 m/S 762 mmHg 51%
    14:00 +20°C° 0.1 mm 6 m/S 761 mmHg 54%
    15:00 +20°C° 0.1 mm 7 m/S 761 mmHg 58%
    16:00 +17°C° 0.2 mm 7 m/S 761 mmHg 67%
    17:00 +16°C° 0.2 mm 7 m/S 761 mmHg 77%
    18:00 +15°C° 0.2 mm 7 m/S 760 mmHg 87%
    19:00 +15°C° 0.2 mm 7 m/S 761 mmHg 88%
    20:00 +15°C° 0.2 mm 7 m/S 761 mmHg 89%
    21:00 +15°C° 0.2 mm 7 m/S 761 mmHg 90%
    22:00 +15°C° 0.1 mm 6 m/S 761 mmHg 91%
    23:00 +14°C° 0.1 mm 6 m/S 761 mmHg 93%

    26 Oktober, Freitag

    Zeit Temperatur Niederschläge Wind Luftdruck Luftfeuchtigkeit
    00:00 +14°C° 0.1 mm 5 m/S 761 mmHg 94%
    01:00 +13°C° 0 mm 5 m/S 761 mmHg 93%
    02:00 +13°C° 0 mm 5 m/S 760 mmHg 92%
    03:00 +12°C° 0 mm 4 m/S 760 mmHg 91%
    04:00 +12°C° 0 mm 4 m/S 760 mmHg 89%
    05:00 +12°C° 0 mm 3 m/S 761 mmHg 87%
    06:00 +11°C° 0 mm 3 m/S 761 mmHg 85%
    07:00 +13°C° 0 mm 3 m/S 761 mmHg 75%
    08:00 +16°C° 0 mm 3 m/S 761 mmHg 64%
    09:00 +18°C° 0 mm 2 m/S 761 mmHg 53%
    10:00 +19°C° 0 mm 2 m/S 761 mmHg 48%
    11:00 +21°C° 0 mm 2 m/S 761 mmHg 42%
    12:00 +22°C° 0 mm 3 m/S 761 mmHg 37%
    13:00 +22°C° 0 mm 3 m/S 760 mmHg 37%
    14:00 +22°C° 0 mm 3 m/S 760 mmHg 37%
    15:00 +22°C° 0 mm 3 m/S 760 mmHg 38%
    16:00 +20°C° 0 mm 2 m/S 760 mmHg 43%
    17:00 +19°C° 0 mm 2 m/S 760 mmHg 49%
    18:00 +18°C° 0 mm 2 m/S 760 mmHg 55%
    19:00 +16°C° 0 mm 2 m/S 760 mmHg 66%
    20:00 +14°C° 0 mm 1 m/S 760 mmHg 76%
    21:00 +12°C° 0 mm 1 m/S 761 mmHg 87%
    22:00 +12°C° 0 mm 1 m/S 760 mmHg 89%
    23:00 +12°C° 0 mm 1 m/S 760 mmHg 92%

    27 Oktober, Samstag

    Zeit Temperatur Niederschläge Wind Luftdruck Luftfeuchtigkeit
    00:00 +10°C° 0 mm 2 m/S 760 mmHg 94%
    01:00 +12°C° 0 mm 2 m/S 759 mmHg 94%
    02:00 +12°C° 0 mm 2 m/S 759 mmHg 94%
    03:00 +13°C° 0 mm 2 m/S 759 mmHg 93%
    04:00 +12°C° 0.1 mm 3 m/S 758 mmHg 93%
    05:00 +12°C° 0.1 mm 3 m/S 758 mmHg 93%
    06:00 +12°C° 0.1 mm 3 m/S 758 mmHg 93%
    07:00 +14°C° 0.1 mm 4 m/S 758 mmHg 89%
    08:00 +17°C° 0.1 mm 4 m/S 758 mmHg 85%
    09:00 +19°C° 0.1 mm 5 m/S 758 mmHg 80%
    10:00 +20°C° 0.1 mm 5 m/S 757 mmHg 73%
    11:00 +21°C° 0.1 mm 5 m/S 757 mmHg 65%
    12:00 +22°C° 0.1 mm 4 m/S 756 mmHg 58%
    13:00 +22°C° 0.1 mm 5 m/S 756 mmHg 63%
    14:00 +21°C° 0.1 mm 5 m/S 755 mmHg 67%
    15:00 +20°C° 0.1 mm 5 m/S 755 mmHg 72%
    16:00 +19°C° 0.7 mm 5 m/S 754 mmHg 76%
    17:00 +17°C° 0.7 mm 6 m/S 754 mmHg 79%
    18:00 +17°C° 0.7 mm 6 m/S 754 mmHg 82%
    19:00 +16°C° 0.6 mm 7 m/S 754 mmHg 84%
    20:00 +16°C° 0.6 mm 7 m/S 754 mmHg 86%
    21:00 +16°C° 0.6 mm 8 m/S 754 mmHg 88%
    22:00 +16°C° 1.1 mm 8 m/S 753 mmHg 91%
    23:00 +16°C° 1.1 mm 9 m/S 753 mmHg 93%

    28 Oktober, Sonntag

    Zeit Temperatur Niederschläge Wind Luftdruck Luftfeuchtigkeit
    00:00 +16°C° 1.1 mm 9 m/S 752 mmHg 96%
    01:00 +16°C° 1 mm 9 m/S 752 mmHg 96%
    02:00 +16°C° 1 mm 8 m/S 751 mmHg 96%
    03:00 +16°C° 1 mm 8 m/S 751 mmHg 96%
    04:00 +15°C° 0.3 mm 7 m/S 751 mmHg 96%
    05:00 +15°C° 0.3 mm 7 m/S 751 mmHg 96%
    06:00 +15°C° 0.3 mm 6 m/S 750 mmHg 96%
    07:00 +16°C° 0 mm 6 m/S 751 mmHg 88%
    08:00 +17°C° 0 mm 7 m/S 751 mmHg 80%
    09:00 +18°C° 0 mm 7 m/S 751 mmHg 72%
    10:00 +20°C° 0.1 mm 7 m/S 751 mmHg 65%
    11:00 +20°C° 0.1 mm 8 m/S 750 mmHg 59%
    12:00 +21°C° 0.1 mm 8 m/S 750 mmHg 52%
    13:00 +21°C° 0.2 mm 8 m/S 750 mmHg 57%
    14:00 +20°C° 0.2 mm 7 m/S 750 mmHg 63%
    15:00 +20°C° 0.2 mm 7 m/S 750 mmHg 68%
    16:00 +18°C° 0.2 mm 7 m/S 751 mmHg 74%
    17:00 +16°C° 0.2 mm 6 m/S 751 mmHg 80%
    18:00 +15°C° 0.2 mm 6 m/S 751 mmHg 87%
    19:00 +15°C° 0 mm 6 m/S 752 mmHg 88%
    20:00 +14°C° 0 mm 5 m/S 752 mmHg 89%
    21:00 +14°C° 0 mm 5 m/S 753 mmHg 91%
    22:00 +14°C° 0.1 mm 5 m/S 753 mmHg 91%
    23:00 +13°C° 0.1 mm 4 m/S 753 mmHg 91%

    29 Oktober, Montag

    Zeit Temperatur Niederschläge Wind Luftdruck Luftfeuchtigkeit
    00:00 +13°C° 0.1 mm 4 m/S 753 mmHg 91%
    01:00 +13°C° 0.1 mm 4 m/S 753 mmHg 91%
    02:00 +13°C° 0.1 mm 4 m/S 752 mmHg 92%
    03:00 +13°C° 0.1 mm 4 m/S 752 mmHg 92%
    04:00 +13°C° 1.1 mm 4 m/S 752 mmHg 92%
    05:00 +13°C° 1.1 mm 4 m/S 752 mmHg 92%
    06:00 +14°C° 1.1 mm 4 m/S 752 mmHg 92%
    07:00 +14°C° 1.9 mm 3 m/S 753 mmHg 93%
    08:00 +15°C° 1.9 mm 2 m/S 753 mmHg 94%
    09:00 +15°C° 1.9 mm 1 m/S 753 mmHg 96%
    10:00 +16°C° 2.2 mm 2 m/S 752 mmHg 94%
    11:00 +16°C° 2.2 mm 3 m/S 752 mmHg 92%
    12:00 +17°C° 2.2 mm 3 m/S 752 mmHg 90%
    13:00 +17°C° 2.4 mm 3 m/S 751 mmHg 92%
    14:00 +16°C° 2.4 mm 3 m/S 751 mmHg 94%
    15:00 +16°C° 2.4 mm 3 m/S 750 mmHg 97%
    16:00 +14°C° 3.6 mm 3 m/S 750 mmHg 97%
    17:00 +14°C° 3.6 mm 3 m/S 750 mmHg 97%
    18:00 +14°C° 3.6 mm 4 m/S 750 mmHg 98%
    19:00 +14°C° 1.5 mm 4 m/S 750 mmHg 98%
    20:00 +14°C° 1.5 mm 4 m/S 750 mmHg 98%
    21:00 +14°C° 1.5 mm 4 m/S 750 mmHg 98%
    22:00 +13°C° 0.2 mm 5 m/S 750 mmHg 98%
    23:00 +13°C° 0.2 mm 5 m/S 750 mmHg 98%
    Mehr zeigen